{"data":{"norad_id":44453,"epoch":"2026-09-15T22:41:40.614144Z","epoch_age_seconds":455290,"freshness":"STALE","line1":"1 44453U 19046A   26258.94560896  .00000060  00000+0  00000+0 0  9994","line2":"2 44453  63.2088  38.9430 7098206 275.0635  14.5857  2.00609275 52161","mean_motion":2.00609275,"eccentricity":0.7098206,"inclination_deg":63.2088,"raan_deg":38.943,"arg_perigee_deg":275.0635,"mean_anomaly_deg":14.5857,"bstar":0,"rev_number":5216,"period_min":717.81327159475,"perigee_km":1327.9589841866,"apogee_km":39028.399988289,"semimajor_km":26556.316486238,"source":"CELESTRAK","updated_at":"2026-09-20T09:00:14.528426Z"}}